Location: Unspecified
(40.9447°N, 78.9903°W)
Time: 15:08:51
(UTC-05:00)

Hubble Space Telescope - Pass Details

Date: 22 January 2019
Orbit: 537 x 540 km, 28.5° (Epoch: 21 February)

Event Time Altitude Azimuth Distance (km) Brightness Sun altitude
Exits shadow 06:34:06 - 235° (SW) 2,240 3.6 -11.5°
Reaches altitude 10° 06:36:17 10° 211° (SSW) 1,783 3.3 -11.2°
Maximum altitude 06:37:42 12° 191° (S) 1,686 3.4 -10.9°
Drops below altitude 10° 06:39:07 10° 171° (S) 1,782 3.8 -10.6°
Sets 06:42:48 0° 138° (SE) 2,672 5.5 -10.0°
